NUSANTARA SATU

Last updated on Sun Apr 27 2025 00:02:42 GMT+0000 (Coordinated Universal Time)

1 44048U 19009A 25115.86989095 -.00000232 00000+0 00000+0 0 9993 2 44048 0.0379 125.4324 0003152 334.2043 213.6624 1.00271823 22587
UTC large
Height (km)
Speed (km/s)
/
Latitude / Longitude
Inclination (degrees)
Orbital Period (minutes)
Azimuth
Elevation
Range (km)
Doppler Factor

Next 0 passes for location: London (51.5072 / 0.1276)

Sorry there are no passes over London.